Ankeny, IA

3:54 AM CST on November 22, 2019 (GMT -0600)
Ankeny Regional

Weather History for KIKV - September, 2019

Change the Weather History Date:

Thursday, September 12, 2019

  Actual Average (KDSM) Record (KDSM)
Temperature  
Mean Temperature 77 °F -  
Max Temperature 86 °F 78 °F 96 °F (1927)
Min Temperature 68 °F 57 °F 37 °F (1902)
Cooling Degree Days 12    
Growing Degree Days 27 (Base 50)    
Moisture  
Dew Point 70 °F    
Average Humidity 81    
Maximum Humidity 94    
Minimum Humidity 62    
Precipitation  
Precipitation 0.36 in - - ()
Sea Level Pressure  
Sea Level Pressure 29.94 in    
Wind  
Wind Speed 8 mph ()    
Max Wind Speed 20 mph    
Max Gust Speed 28 mph    
Visibility 9.9 miles    
Events Rain    
Averages and records for this station are not official NWS values.
T = Trace of Precipitation, MM = Missing Value Source: Averaged Metar Reports

Daily Weather History Graph

Daily Weather History Graph

Search for Another Location

Airport or City:

Astronomy

Sep. 12, 2019 Rise Set
Actual Time 6:51 AM CDT 7:29 PM CDT
Civil Twilight 6:23 AM CDT 7:57 PM CDT
Nautical Twilight 5:50 AM CDT 8:30 PM CDT
Astronomical Twilight 5:15 AM CDT 9:04 PM CDT
Moon 7:15 PM CDT (9/12) 5:09 AM CDT (9/12)
Length of Visible Light 13h 33m
Length of Day
12h 37m
Waxing Gibbous, 98% of the Moon is Illuminated
Sep 12
Waxing Gibbous
Sep 13
Full
Sep 21
Last Quarter
Sep 28
New
Oct 5
First Quarter

Hourly Weather History & Observations

Time (CDT) Temp. Heat Index Dew Point Humidity Pressure Visibility Wind Dir Wind Speed Gust Speed Precip Events Conditions
12:15 AM 77.0 °F - 71.6 °F 83% 29.95 in 10.0 mi South 10.4 mph - N/A   Clear
12:35 AM 77.0 °F - 71.6 °F 83% 29.95 in 10.0 mi South 9.2 mph - N/A   Clear
12:55 AM 75.2 °F - 71.6 °F 89% 29.96 in 10.0 mi SSW 8.1 mph - N/A   Clear
1:15 AM 75.2 °F - 69.8 °F 83% 29.97 in 10.0 mi South 5.8 mph - N/A   Clear
1:35 AM 75.2 °F - 69.8 °F 83% 29.97 in 10.0 mi South 5.8 mph - N/A   Clear
1:55 AM 75.2 °F - 69.8 °F 83% 29.97 in 10.0 mi South 5.8 mph - N/A   Clear
2:55 AM 73.4 °F - 69.8 °F 88% 29.97 in 10.0 mi South 4.6 mph - N/A   Clear
3:15 AM 73.4 °F - 69.8 °F 88% 29.97 in 10.0 mi SSE 4.6 mph - N/A   Clear
3:35 AM 73.4 °F - 69.8 °F 88% 29.96 in 10.0 mi SSE 5.8 mph - N/A   Clear
3:55 AM 73.4 °F - 69.8 °F 88% 29.96 in 10.0 mi SSE 4.6 mph - N/A   Clear
4:15 AM 73.4 °F - 69.8 °F 88% 29.96 in 10.0 mi SSE 6.9 mph - N/A   Clear
4:35 AM 73.4 °F - 69.8 °F 88% 29.96 in 10.0 mi SSE 6.9 mph - N/A   Clear
4:55 AM 73.4 °F - 69.8 °F 88% 29.96 in 10.0 mi SSE 5.8 mph - N/A   Clear
5:15 AM 73.4 °F - 69.8 °F 88% 29.97 in 10.0 mi South 4.6 mph - N/A   Scattered Clouds
5:35 AM 73.4 °F - 69.8 °F 88% 29.97 in 10.0 mi South 5.8 mph - N/A   Mostly Cloudy
5:55 AM 73.4 °F - 69.8 °F 88% 29.96 in 10.0 mi SSE 8.1 mph - N/A   Mostly Cloudy
6:15 AM 73.4 °F - 69.8 °F 88% 29.96 in 10.0 mi SSE 9.2 mph - N/A   Mostly Cloudy
6:35 AM 73.4 °F - 69.8 °F 88% 29.95 in 10.0 mi SSE 5.8 mph 12.7 mph N/A   Overcast
6:55 AM 71.6 °F - 69.8 °F 94% 29.95 in 10.0 mi South 8.1 mph - 0.02 in   Scattered Clouds
7:15 AM 71.6 °F - 69.8 °F 94% 29.94 in 10.0 mi SSE 6.9 mph 13.8 mph N/A   Clear
7:35 AM 73.4 °F - 69.8 °F 88% 29.95 in 10.0 mi South 8.1 mph - N/A   Scattered Clouds
7:55 AM 73.4 °F - 69.8 °F 88% 29.96 in 10.0 mi South 9.2 mph 15.0 mph N/A   Scattered Clouds
8:15 AM 73.4 °F - 69.8 °F 88% 29.96 in 10.0 mi SSE 5.8 mph - N/A   Scattered Clouds
8:35 AM 73.4 °F - 71.6 °F 94% 29.95 in 10.0 mi SSE 4.6 mph - N/A   Scattered Clouds
8:55 AM 73.4 °F - 71.6 °F 94% 29.94 in 10.0 mi SSE 8.1 mph - N/A   Clear
9:15 AM 75.2 °F - 71.6 °F 89% 29.94 in 10.0 mi SSE 8.1 mph - N/A   Clear
9:35 AM 77.0 °F - 71.6 °F 83% 29.94 in 10.0 mi SSE 9.2 mph - N/A   Clear
9:55 AM 78.8 °F - 71.6 °F 78% 29.94 in 10.0 mi South 10.4 mph 16.1 mph N/A   Clear
10:15 AM 80.6 °F 84.6 °F 71.6 °F 74% 29.94 in - South 9.2 mph 18.4 mph N/A   Clear
10:35 AM 80.6 °F 84.6 °F 71.6 °F 74% 29.93 in 10.0 mi South 10.4 mph 17.3 mph N/A   Clear
10:55 AM 82.4 °F 87.2 °F 71.6 °F 70% 29.93 in 10.0 mi South 11.5 mph 20.7 mph N/A   Clear
11:15 AM 84.2 °F 89.6 °F 71.6 °F 66% 29.92 in 10.0 mi South 11.5 mph 23.0 mph N/A   Clear
11:35 AM 84.2 °F 89.6 °F 71.6 °F 66% 29.92 in 10.0 mi South 11.5 mph 20.7 mph N/A   Clear
11:55 AM 84.2 °F 89.6 °F 71.6 °F 66% 29.92 in 10.0 mi SW 16.1 mph 24.2 mph N/A   Clear
12:15 PM 86.0 °F 91.8 °F 71.6 °F 62% 29.91 in 10.0 mi SSW 17.3 mph 24.2 mph N/A   Scattered Clouds
12:35 PM 84.2 °F 89.6 °F 71.6 °F 66% 29.91 in 10.0 mi SSW 13.8 mph 24.2 mph N/A   Mostly Cloudy
12:55 PM 86.0 °F 91.8 °F 71.6 °F 62% 29.91 in 10.0 mi SSW 10.4 mph 18.4 mph N/A   Mostly Cloudy
1:15 PM 86.0 °F 91.8 °F 71.6 °F 62% 29.90 in 10.0 mi SSW 17.3 mph 26.5 mph N/A   Mostly Cloudy
1:35 PM 84.2 °F 89.6 °F 71.6 °F 66% 29.91 in 10.0 mi SSW 19.6 mph - N/A   Mostly Cloudy
1:55 PM 84.2 °F 89.6 °F 71.6 °F 66% 29.91 in 10.0 mi SW 15.0 mph 25.3 mph N/A   Mostly Cloudy
2:15 PM 84.2 °F 89.6 °F 71.6 °F 66% 29.91 in 10.0 mi SW 16.1 mph 24.2 mph N/A   Mostly Cloudy
2:35 PM 84.2 °F 89.6 °F 71.6 °F 66% 29.91 in 10.0 mi SW 16.1 mph 26.5 mph N/A   Mostly Cloudy
2:55 PM 82.4 °F 87.2 °F 71.6 °F 70% 29.91 in 10.0 mi SW 17.3 mph 26.5 mph N/A   Mostly Cloudy
3:35 PM 80.6 °F 84.6 °F 71.6 °F 74% 29.89 in 10.0 mi SW 9.2 mph 18.4 mph N/A   Mostly Cloudy
3:55 PM 80.6 °F 84.6 °F 71.6 °F 74% 29.88 in 10.0 mi SSW 12.7 mph 25.3 mph N/A   Mostly Cloudy
4:15 PM 80.6 °F 84.6 °F 71.6 °F 74% 29.89 in 10.0 mi SSW 10.4 mph 24.2 mph N/A   Overcast
4:35 PM 80.6 °F 84.6 °F 71.6 °F 74% 29.91 in 10.0 mi SSW 16.1 mph 25.3 mph N/A   Overcast
4:55 PM 78.8 °F - 71.6 °F 78% 29.91 in 10.0 mi SSW 15.0 mph 27.6 mph N/A   Mostly Cloudy
5:15 PM 78.8 °F - 71.6 °F 78% 29.91 in 10.0 mi SSW 12.7 mph - N/A   Mostly Cloudy
5:35 PM 78.8 °F - 71.6 °F 78% 29.92 in 10.0 mi SSW 12.7 mph 21.9 mph N/A   Overcast
5:55 PM 75.2 °F - 71.6 °F 89% 29.93 in 1.5 mi SW 15.0 mph 21.9 mph 0.21 in Rain Heavy Rain
6:15 PM 73.4 °F - 71.6 °F 94% 29.94 in 10.0 mi SW 9.2 mph 16.1 mph N/A   Mostly Cloudy
6:35 PM 73.4 °F - 71.6 °F 94% 29.92 in 10.0 mi SW 6.9 mph - N/A   Scattered Clouds
6:55 PM 73.4 °F - 71.6 °F 94% 29.91 in 10.0 mi SW 8.1 mph - 0.13 in   Clear
7:15 PM 73.4 °F - 69.8 °F 88% 29.92 in 10.0 mi SW 11.5 mph - N/A   Clear
7:35 PM 73.4 °F - 69.8 °F 88% 29.92 in 10.0 mi SSW 11.5 mph - N/A   Clear
7:55 PM 71.6 °F - 68.0 °F 88% 29.92 in 10.0 mi SW 11.5 mph 17.3 mph N/A   Clear
8:15 PM 71.6 °F - 68.0 °F 88% 29.93 in 10.0 mi SW 9.2 mph 16.1 mph N/A   Clear
8:55 PM 71.6 °F - 68.0 °F 88% 29.96 in 10.0 mi SW 8.1 mph - N/A   Clear
9:15 PM 71.6 °F - 68.0 °F 88% 29.97 in 10.0 mi WSW 8.1 mph - N/A   Partly Cloudy
9:35 PM 69.8 °F - 66.2 °F 88% 29.97 in 10.0 mi West 9.2 mph - N/A   Partly Cloudy
9:55 PM 69.8 °F - 62.6 °F 78% 29.97 in 10.0 mi West 6.9 mph - N/A   Clear
10:15 PM 68.0 °F - 62.6 °F 83% 29.98 in 10.0 mi West 5.8 mph - N/A   Clear
10:35 PM 68.0 °F - 60.8 °F 78% 29.98 in 10.0 mi WSW 3.5 mph - N/A   Clear
10:55 PM 68.0 °F - 60.8 °F 78% 29.98 in 10.0 mi SW 4.6 mph - N/A   Clear
11:15 PM 68.0 °F - 60.8 °F 78% 29.98 in 10.0 mi SW 4.6 mph - N/A   Clear
11:35 PM 68.0 °F - 60.8 °F 78% 29.98 in 10.0 mi SW 5.8 mph - N/A   Clear
11:55 PM 68.0 °F - 60.8 °F 78% 29.98 in 10.0 mi SW 6.9 mph - N/A   Clear